Flag Weather past 2 weeks in Minas, Uruguay

Now
52 °F

Sunny.


Feels Like: 52 °F
Forecast: 42 / 80 °F
Wind: No wind

Location: Capitan Corbeta

Current Time: Nov 27, 2014 at 8:02:04 AM

Latest Report: Nov 27, 2014 at 7:00 AM


Visibility: 10 mi

Pressure: 29.98 "Hg

Humidity: 94%

Dew point: 50 °F

Location of MinasLocation

Historic Weather in Minas — Graph

°F

Minas temperature yesterday

Maximum temperature yesterday: 68 °F (at 3:00 PM)
Minimum temperature yesterday: 50 °F (at 5:00 AM)
Average temperature yesterday: 60 °F

Past Weeks' High & Low Weather Summary

 TemperatureHumidityPressure
High90 °F (Nov 19, 1:00 PM)100% (Nov 17, 6:00 AM)30.15 "Hg (Nov 17, 6:00 AM)
Low48 °F (Nov 14, 2:00 AM)27% (Nov 15, 3:00 PM)29.68 "Hg (Nov 19, 1:00 PM)
Average66 °F69%29.92 "Hg
* Reported Nov 12 7:00 AM — Nov 27 7:00 AM, Minas, Weather by CustomWeather, © 2014

Note: Actual official high and low records may vary slightly from our data, if they occured in-between our weather recording intervals... More about our weather records

Advertising

Minas weather history for previous 24 hours

 ConditionsComfort  
Time TempWeatherWind HumidityBarometerVisibility
7:00 AM
Nov 27
52 °FSunny.No wind94%29.98 "Hg10 mi
6:00 AM50 °FFog.3 mph94%29.95 "Hg1 mi
3:00 AM54 °FClear.3 mph88%29.95 "Hg10 mi
2:00 AM55 °FClear.3 mph82%29.98 "Hg10 mi
1:00 AM57 °FClear.3 mph77%29.98 "Hg10 mi
12:00 AM59 °FClear.5 mph77%29.95 "Hg10 mi
11:00 PM
Nov 26
61 °FClear.5 mph68%29.95 "Hg10 mi
10:00 PM61 °FClear.7 mph68%29.95 "Hg10 mi
9:00 PM61 °FClear.3 mph68%29.95 "Hg10 mi
8:00 PM63 °FSunny.12 mph64%29.89 "Hg10 mi
7:00 PM64 °FSunny.7 mph60%29.95 "Hg10 mi
6:00 PM64 °FSunny.6 mph64%29.95 "Hg10 mi
5:00 PM66 °FSunny.10 mph60%29.95 "Hg10 mi
3:00 PM68 °FSunny.9 mph46%29.95 "Hg10 mi
2:00 PM66 °FPartly sunny.9 mph56%29.95 "HgN/A
1:00 PM66 °FSunny.9 mph60%29.95 "Hg10 mi
11:00 AM66 °FSunny.6 mph64%29.98 "Hg10 mi
10:00 AM64 °FPassing clouds.8 mph68%29.98 "HgN/A
9:00 AM57 °FSunny.2 mph88%29.98 "Hg10 mi
Weather by CustomWeather, © 2014

See weather overviewHow to use our weather pages